Sierra Vista, AZ

5:33 PM MST on January 23, 2018 (GMT -0700)
Sierra Vista Municipal-Libby Army Air Field

Weather History for KFHU - July, 2013

Change the Weather History Date:

Wednesday, July 17, 2013

  Actual Average Record
Temperature  
Mean Temperature 75 °F -  
Max Temperature 84 °F 88 °F 98 °F (1989)
Min Temperature 66 °F 69 °F 60 °F (1986)
Cooling Degree Days 10    
Growing Degree Days 25 (Base 50)    
Moisture  
Dew Point 58 °F    
Average Humidity 62    
Maximum Humidity 94    
Minimum Humidity 33    
Precipitation  
Precipitation 0.00 in - - ()
Sea Level Pressure  
Sea Level Pressure 30.05 in    
Wind  
Wind Speed 5 mph (ESE)    
Max Wind Speed 15 mph    
Max Gust Speed -    
Visibility 10 miles    
Events      
Averages and records for this station are not official NWS values.
T = Trace of Precipitation, MM = Missing Value Source: NWS Daily Summary

Daily Weather History Graph

Daily Weather History Graph

Search for Another Location

Airport or City:

Trip Planner

Search our weather history database for the weather conditions in past years. The results will help you decide how hot, cold, wet, or windy it might be!

Date:

Astronomy

Jul. 17, 2013 Rise Set
Actual Time 5:28 AM MST 7:26 PM MST
Civil Twilight 5:00 AM MST 7:53 PM MST
Nautical Twilight 4:27 AM MST 8:26 PM MST
Astronomical Twilight 3:52 AM MST 9:02 PM MST
Moon 2:24 PM MST (7/17) 12:30 AM MST (7/17)
Length of Visible Light 14h 52m
Length of Day
13h 58m
Waxing Gibbous, 68% of the Moon is Illuminated
Jul 17
Waxing Gibbous
Jul 22
Full
Jul 29
Last Quarter
Aug 6
New
Aug 14
First Quarter

Hourly Weather History & Observations

Time (MST) Temp. Heat Index Dew Point Humidity Pressure Visibility Wind Dir Wind Speed Gust Speed Precip Events Conditions
12:55 AM 66.2 °F - 64.4 °F 94% 30.03 in 10.0 mi Calm Calm - N/A   Mostly Cloudy
1:27 AM 66.2 °F - 62.6 °F 88% 30.19 in 10.0 mi SE 4.6 mph - N/A   Scattered Clouds
1:55 AM 66.2 °F - 62.6 °F 88% 30.02 in 10.0 mi SSE 3.5 mph - N/A   Scattered Clouds
2:55 AM 66.2 °F - 64.4 °F 94% 30.03 in 10.0 mi SSE 4.6 mph - N/A   Mostly Cloudy
2:56 AM 66.2 °F - 62.6 °F 88% 30.04 in 10.0 mi Calm Calm - N/A   Overcast
3:55 AM 66.2 °F - 62.6 °F 88% 30.04 in 10.0 mi Calm Calm - N/A   Overcast
4:55 AM 66.2 °F - 62.6 °F 88% 30.07 in 10.0 mi East 3.5 mph - N/A   Mostly Cloudy
5:55 AM 66.2 °F - 64.4 °F 94% 30.09 in 10.0 mi ESE 3.5 mph - N/A   Mostly Cloudy
6:55 AM 66.2 °F - 64.4 °F 94% 30.10 in 10.0 mi Calm Calm - N/A   Mostly Cloudy
7:55 AM 69.8 °F - 64.4 °F 83% 30.10 in 10.0 mi East 4.6 mph - N/A   Mostly Cloudy
8:55 AM 75.2 °F - 60.8 °F 61% 30.24 in 10.0 mi East 8.1 mph - N/A   Mostly Cloudy
9:55 AM 77.0 °F - 57.2 °F 50% 30.08 in 10.0 mi ESE 11.5 mph - N/A   Mostly Cloudy
10:55 AM 78.8 °F - 57.2 °F 47% 30.07 in 10.0 mi SE 6.9 mph - N/A   Scattered Clouds
11:55 AM 80.6 °F 80.5 °F 55.4 °F 42% 30.05 in 10.0 mi ESE 11.5 mph - N/A   Scattered Clouds
12:55 PM 82.4 °F 81.7 °F 55.4 °F 39% 30.04 in 10.0 mi SE 9.2 mph - N/A   Scattered Clouds
1:55 PM 82.4 °F - 51.8 °F 35% 30.02 in 10.0 mi East 10.4 mph - N/A   Scattered Clouds
2:55 PM 82.4 °F 81.4 °F 53.6 °F 37% 30.00 in 10.0 mi Variable 5.8 mph - N/A   Scattered Clouds
3:55 PM 84.2 °F - 51.8 °F 33% 29.97 in 10.0 mi East 9.2 mph - N/A   Scattered Clouds
4:56 PM 84.0 °F - 52.0 °F 33% 29.94 in 10.0 mi NE 6.9 mph - N/A   Scattered Clouds
5:56 PM 82.9 °F - 51.1 °F 33% 29.96 in 10.0 mi ENE 3.5 mph - N/A   Mostly Cloudy
6:56 PM 82.9 °F 81.8 °F 53.1 °F 36% 29.96 in 10.0 mi ENE 5.8 mph - N/A   Scattered Clouds
7:56 PM 75.9 °F - 54.0 °F 46% 30.00 in 10.0 mi ENE 12.7 mph - N/A   Clear
8:56 PM 73.9 °F - 57.0 °F 55% 30.20 in 10.0 mi East 8.1 mph - N/A   Mostly Cloudy
9:56 PM 73.0 °F - 57.0 °F 57% 30.03 in 10.0 mi SSE 11.5 mph - N/A   Mostly Cloudy
10:55 PM 73.4 °F - 55.4 °F 53% 30.03 in 10.0 mi SSE 15.0 mph - N/A   Overcast
11:55 PM 73.4 °F - 55.4 °F 53% 30.02 in 10.0 mi SSE 9.2 mph - N/A   Overcast